Location: Le Rocchette
(44.3500°N, 7.8333°E)
Time: 13:51:44
(UTC+00:00)

Cosmos 494 Rocket - Pass Details

Date: 17 November 2019
Orbit: 742 x 771 km, 74.1° (Epoch: 14 December)

Event Time Altitude Azimuth Distance (km) Brightness Sun altitude
Rises 05:36:15 0° 340° (NNW) 3,253 6.9 -9.2°
Reaches altitude 10° 05:38:39 10° 343° (NNW) 2,320 6.2 -8.8°
Maximum altitude 05:43:55 71° 68° (ENE) 810 4.3 -7.9°
Drops below altitude 10° 05:49:06 10° 153° (SSE) 2,288 7.2 -7.0°
Sets 05:51:28 0° 155° (SSE) 3,205 8.0 -6.6°
